Louisville Bowman, KY

1:16 AM EDT on August 23, 2019 (GMT -0400)
Bowman

Weather History for KLOU - May, 2019

Change the Weather History Date:

Friday, May 17, 2019

  Actual Average Record
Temperature  
Mean Temperature 75 °F 66 °F  
Max Temperature 88 °F 77 °F 91 °F (1962)
Min Temperature 62 °F 56 °F 42 °F (1973)
Degree Days  
Heating Degree Days 0 2  
Month to date heating degree days 47 55  
Since 1 July heating degree days 4101 4246  
Cooling Degree Days 10 4  
Month to date cooling degree days 41 42  
Year to date cooling degree days 58 76  
Growing Degree Days 25 (Base 50)    
Moisture  
Dew Point 61 °F    
Average Humidity 63    
Maximum Humidity 90    
Minimum Humidity 36    
Precipitation  
Precipitation 0.00 in 0.16 in 1.21 in (2003)
Month to date precipitation 2.29 2.99  
Year to date precipitation 25.70 17.79  
Snow  
Snow 0.00 in - - ()
Month to date snowfall 0.0  
Since 1 July snowfall 0.0  
Snow Depth 0.00 in    
Sea Level Pressure  
Sea Level Pressure 29.86 in    
Wind  
Wind Speed 8 mph (SW)    
Max Wind Speed 18 mph    
Max Gust Speed 27 mph    
Visibility 10 miles    
Events      
T = Trace of Precipitation, MM = Missing Value Source: NWS Daily Summary

Daily Weather History Graph

Daily Weather History Graph

Search for Another Location

Airport or City:

Astronomy

May. 17, 2019 Rise Set
Actual Time 6:30 AM EDT 8:48 PM EDT
Civil Twilight 6:00 AM EDT 9:18 PM EDT
Nautical Twilight 5:23 AM EDT 9:54 PM EDT
Astronomical Twilight 4:43 AM EDT 10:35 PM EDT
Moon 7:37 PM EDT (5/17) 5:58 AM EDT (5/17)
Length of Visible Light 15h 17m
Length of Day
14h 18m
Waxing Gibbous, 98% of the Moon is Illuminated
May 17
Waxing Gibbous
May 18
Full
May 26
Last Quarter
Jun 3
New
Jun 10
First Quarter

Hourly Weather History & Observations

Time (EDT) Temp. Heat Index Dew Point Humidity Pressure Visibility Wind Dir Wind Speed Gust Speed Precip Events Conditions
12:53 AM 64.0 °F - 59.0 °F 84% 29.82 in 10.0 mi South 8.1 mph - N/A   Clear
1:53 AM 64.0 °F - 59.0 °F 84% 29.84 in 10.0 mi South 5.8 mph - N/A   Clear
2:53 AM 64.0 °F - 60.1 °F 87% 29.83 in 10.0 mi SSE 8.1 mph - N/A   Partly Cloudy
3:53 AM 64.0 °F - 60.1 °F 87% 29.83 in 10.0 mi SSE 6.9 mph - N/A   Clear
4:53 AM 64.9 °F - 60.1 °F 84% 29.83 in 10.0 mi South 6.9 mph - N/A   Clear
5:53 AM 64.9 °F - 60.1 °F 84% 29.85 in 10.0 mi Calm Calm - N/A   Clear
6:53 AM 63.0 °F - 59.0 °F 87% 29.86 in 10.0 mi Calm Calm - N/A   Clear
7:53 AM 69.1 °F - 63.0 °F 81% 29.88 in 10.0 mi SW 5.8 mph - N/A   Clear
8:53 AM 73.0 °F - 64.9 °F 76% 29.88 in 10.0 mi SW 6.9 mph - N/A   Clear
9:53 AM 77.0 °F - 64.9 °F 66% 29.87 in 10.0 mi WSW 10.4 mph - N/A   Clear
10:53 AM 80.1 °F 81.9 °F 64.9 °F 60% 29.88 in 10.0 mi SW 10.4 mph 17.3 mph N/A   Clear
11:53 AM 82.9 °F 85.0 °F 66.0 °F 56% 29.88 in 10.0 mi SW 9.2 mph - N/A   Clear
12:53 PM 86.0 °F 88.2 °F 66.0 °F 51% 29.87 in 10.0 mi West 10.4 mph 21.9 mph N/A   Clear
1:53 PM 84.9 °F 86.1 °F 64.0 °F 49% 29.88 in 10.0 mi WSW 10.4 mph - N/A   Mostly Cloudy
2:53 PM 86.0 °F 87.6 °F 64.9 °F 49% 29.88 in 10.0 mi West 10.4 mph 18.4 mph N/A   Scattered Clouds
3:53 PM 87.1 °F 87.8 °F 63.0 °F 44% 29.86 in 10.0 mi SW 10.4 mph 20.7 mph N/A   Scattered Clouds
4:53 PM 87.1 °F 87.0 °F 61.0 °F 41% 29.86 in 10.0 mi WSW 9.2 mph - N/A   Scattered Clouds
5:53 PM 87.1 °F 85.9 °F 57.0 °F 36% 29.86 in 10.0 mi WSW 10.4 mph 19.6 mph N/A   Partly Cloudy
6:53 PM 86.0 °F 85.4 °F 59.0 °F 40% 29.85 in 10.0 mi West 9.2 mph - N/A   Clear
7:53 PM 84.0 °F 83.0 °F 55.9 °F 38% 29.86 in 10.0 mi SW 9.2 mph - N/A   Clear
8:53 PM 81.0 °F 80.4 °F 53.1 °F 38% 29.87 in 10.0 mi SW 5.8 mph - N/A   Clear
9:53 PM 78.1 °F - 55.0 °F 45% 29.89 in 10.0 mi SSW 4.6 mph - N/A   Clear
10:53 PM 75.0 °F - 57.9 °F 55% 29.90 in 10.0 mi South 5.8 mph - N/A   Clear
11:53 PM 73.0 °F - 59.0 °F 61% 29.91 in 10.0 mi SSW 8.1 mph - N/A   Clear